M1VPN Weather Reports


Display with metric or nautical units.
time (UTC)temp
F
wind
direction
speed
MPH
gust
MPH
rain 1hr
in
rain 24hr
in
rain mn
in
humidity
%
barometer
mb
20260507141503 60 145 2.0 12.0 0.00 0.00 0.00 58 1016.4
20260507133004 60 0 0.0 0.0 0.00 0.00 0.00 54 1016.4
20260507124504 58 0 0.0 0.0 0.00 0.00 0.00 57 1016.5
20260507123004 60 0 0.0 0.0 0.00 0.00 0.00 57 1016.6
20260507121504 60 0 0.0 0.0 0.00 0.00 0.00 58 1016.7
20260507113004 59 0 0.0 0.0 0.00 0.00 0.00 60 1017.0
20260507111504 59 0 0.0 0.0 0.00 0.00 0.00 62 1017.1
20260507103004 59 0 0.0 0.0 0.00 0.00 0.00 69 1016.8
20260507094505 60 0 0.0 0.0 0.00 0.00 0.00 71 1016.8
20260507093005 58 0 0.0 0.0 0.00 0.00 0.00 73 1016.7
20260507091505 56 0 0.0 0.0 0.00 0.00 0.00 78 1016.8
20260507080005 53 0 0.0 0.0 0.00 0.00 0.00 85 1016.8
20260507073005 51 0 0.0 0.0 0.00 0.00 0.00 85 1016.6
20260507070009 49 0 0.0 0.0 0.00 0.00 0.00 91 1016.4
20260507064505 48 0 0.0 0.0 0.00 0.00 0.00 92 1016.2
20260507060005 45 0 0.0 0.0 0.00 0.00 0.00 92 1016.2
20260507053005 44 0 0.0 0.0 0.00 0.00 0.00 92 1016.0
20260507051504 44 0 0.0 0.0 0.00 0.00 0.00 92 1016.1
20260507044504 43 0 0.0 0.0 0.00 0.00 0.00 91 1016.1
20260507043005 43 0 0.0 0.0 0.00 0.00 0.00 91 1016.0
20260507030005 44 0 0.0 0.0 0.00 0.00 0.00 89 1015.8
20260507023005 45 0 0.0 0.0 0.00 0.00 0.00 89 1015.5
20260507021504 46 0 0.0 0.0 0.00 0.00 0.00 89 1015.5
20260507001504 48 0 0.0 0.0 0.00 0.00 0.00 87 1015.9
20260506234504 48 0 0.0 0.0 0.00 0.00 0.00 86 1015.9
20260506233005 48 0 0.0 0.0 0.00 0.00 0.00 87 1015.9
20260506231505 48 0 0.0 0.0 0.00 0.00 0.00 84 1015.8
20260506230004 48 0 0.0 0.0 0.00 0.00 0.00 84 1015.9
20260506211505 50 0 0.0 0.0 0.00 0.00 0.00 83 1015.8
20260506210004 50 0 0.0 0.0 0.00 0.00 0.00 82 1015.5
20260506204504 51 0 0.0 0.0 0.00 0.00 0.00 81 1015.5
20260506200004 52 0 0.0 0.0 0.00 0.00 0.00 78 1015.1
20260506194504 53 0 0.0 0.0 0.00 0.00 0.00 77 1015.2
20260506193005 53 0 0.0 0.0 0.00 0.00 0.00 76 1015.1
20260506191504 54 0 0.0 0.0 0.00 0.00 0.00 74 1015.1
20260506190004 54 0 0.0 0.0 0.00 0.00 0.00 73 1014.9
20260506184504 55 0 0.0 0.0 0.00 0.00 0.00 72 1015.0
20260506181504 55 0 0.0 0.0 0.00 0.00 0.00 68 1014.8
20260506173004 57 0 0.0 0.0 0.00 0.00 0.00 61 1014.4
20260506171504 58 0 0.0 0.0 0.00 0.00 0.00 59 1014.4
20260506170004 58 0 0.0 0.0 0.00 0.00 0.00 57 1014.4
20260506160004 57 0 0.0 0.0 0.00 0.00 0.00 58 1014.3
20260506150005 57 0 0.0 0.0 0.00 0.00 0.00 60 1014.7